sat.trackr.live / text

‹ back to catalog

USA 99 (MILSTAR-1 1)

NORAD 22988 · 1994-009A

PAYLOAD ACTIVE UNKNOWN

§ Identity

Operator
Country
US
Launch date
1994-02-07
Launch site
AFETR
Launch vehicle
Mass (kg)
RCS (m²)

Purposes: comms

External: N2YO · Heavens-Above · Gunter

§ Orbital elements

Epoch: 2026-07-11T15:22:25.455360Z

Period
1,458.66 min
Inclination
17.6619°
Eccentricity
0.0001626
Mean motion
0.98720423 rev/d
Perigee alt
36,220.3 km
Apogee alt
36,234.1 km
Semi-major
42,605.3 km
B*
0.0000e+0
RAAN
27.4499°
Arg perigee
196.6248°
Mean anomaly
164.5715°
Rev number
3,319

§ Raw data

USA 99 (MILSTAR-1 1)1 22988U 94009A   26192.64057240 -.00000002  00000+0  00000+0 0  99902 22988  17.6619  27.4499 0001626 196.6248 164.5715  0.98720423 33197

JSON: /api/v1/satellites/22988 · /tle

For live sub-satellite position, see the globe view (requires WebGL).

§ Visibility from observer

Set your observer location to see the next 7 days of passes ≥ 10°. The values pass through the URL so the page stays shareable.

No JS? Fill the form by hand. The geolocation button needs JavaScript.